ATLAS 5 CENTAUR DEB, 44656

Orbit data source: Space-Track

ATLAS 5 CENTAUR DEB, 44656 is space debris in HEO originally from a launch on Wed, 17 Oct 2018 UTC launched from the Air Force Eastern Test Range (AFETR). Debris objects in space refer to the collection of defunct objects orbiting the Earth. Examples of debris include non-operational satellites, rocket bodies, and fragments generated from explosions, collisions, or faulty payload assembly.

Loading next visibility...
ATLAS 5 CENTAUR DEB details
Identifier
44656, 2018-079S
Orbit
HEO
Last TLE update2 days ago
Origin
Flag of USULA (US)
ManufacturerULA Decatur
MissionSpacecraft
Bus & MotorUnknown
MassUnknown
Launch date (UTC)
2018-10-17 (6 years ago)
Launch vehicleUnknown
Launch site
Air Force Eastern Test Range (AFETR)
Object type
Payload
Rocket body
Debris
Shape & HBRUnknown
Radar Cross SectionRCS unknown

Expand to show TLE details & history

TLE from 2 days ago
0 ATLAS 5 CENTAUR DEB
1 44656U 18079S   24359.44968173 -.00000131  00000-0  00000-0 0  9991
2 44656  13.2062  72.6490 4670017 234.2174  72.8365  1.83296721 37883
Epoch: 2024-12-24T10:47Z
Definitive object data (Epoch: 2024-12-24T10:47:32.501Z)
Latitude0.00001°
Longitude177.27496°
Altitude23,978.776 km
Speed3.483 km/s
True Right ascension04h 50m 28s
True Declination0° 00' 00"
Sunlit
Object was in daylight at TLE epoch
Visualization TLE readout
Latitude9.87611°
Longitude-135.14733°
Altitude34,807.096 km
Speed2.286 km/s
Apparent Right ascension07h 47m 39s
Apparent Declination3° 48' 41"
Sunlit
Object is in daylight
Visualization observer readout
Local Sidereal Time17:54:23
Azimuth322.403° NNW
Elevation-39.129°
Doppler factor1
Orbital elements
Apogee altitude34,999.116 km
Perigee altitude8,655.251 km
Semi-major axis28,205.32 km
Eccentricity0.4670017
Inclination13.2062°
RAAN72.649°
Arg. of periapsis234.2174°
True anomaly125.72292°
Mean anomaly72.8365°
Eccentric anomaly99.24608°
Mean motion0.45819 °/min
BSTARUnknown
Orbital period785.7 mins
Loading maneuver chart data...

ATLAS 5 CENTAUR DEB Visibility forecast

Observer location: undefined°, undefined

Span
Click to sort rows by Start time (UTC) header in descending order
Start Az.
Max El. time (UTC)
Max El. Az.
Max El.
End time (UTC)
End Az.
700 mins2024-12-27 02:15:52.625Z210.194° SW2024-12-27 10:34:52.625Z166.565° S40.104°2024-12-27 13:55:52.625Z119.155° SE
|